User: anonymous
Location: Caltech
(34.1382°N, 118.1253°W)
Time: 23:45:59
(UTC-07:00)
Language:

Iridium 95 - Orbit

View from above orbital plane
View from above orbital plane
View from above satellite
View from above satellite

Ground track
Ground track

The orbit data is extracted from the following two-line orbital elements,

1 27375U 02005D   14244.38875461  .00000247  00000-0  81248-4 0  4151
2 27375 086.4025 353.7432 0002332 113.5386 246.6055 14.34219656664741
Epoch (UTC): 01 September 2014 09:19:48
Eccentricity: 0.0002332
inclination: 86.4025°
perigee height: 776 km
apogee height: 779 km
right ascension of ascending node: 353.7432°
argument of perigee: 113.5386°
revolutions per day: 14.34219656
mean anomaly at epoch: 246.6055°
orbit number at epoch: 66474

The dashed part of the orbit path shows where the satellite is in the earth's shadow,  

DLR